This demonstration page uses our WeatherBlox Daily Observations layout. Learn more.

Left ArrowRight Arrow

39.51506, -84.39828

Hourly Observations for February 9, 2019

Temp ( °F °C ) Dew Point ( °F °C ) Humidity (%) Winds ( mph kmh ) Pressure ( in mb ) Visibility ( mi km ) Precip ( " mm )
12:15 am 00:15 Clear 17 -8.3 8 -13.1 69 69 WNW 6 9 30.81 1043 10 16 0.00 0.00
12:35 am 00:35 Clear 17 -8.5 8 -13.3 69 69 NW 5 7 30.82 1044 10 16 0.00 0.00
12:55 am 00:55 Clear 17 -8.6 8 -13.4 69 69 WNW 7 11 30.83 1044 10 16 0.00 0.00
1:15 am 01:15 Clear 16 -8.7 8 -13.3 70 70 WNW 3 6 30.84 1044 10 16 0.00 0.00
1:35 am 01:35 Clear 16 -8.8 8 -13.5 69 69 NNW 3 6 30.84 1044 10 16 0.00 0.00
1:55 am 01:55 Clear 16 -9 8 -13.6 70 70 NW 6 9 30.85 1045 10 16 0.00 0.00
2:15 am 02:15 Clear 16 -9 8 -13.6 70 70 NNW 6 9 30.85 1045 10 16 0.00 0.00
2:35 am 02:35 Clear 15 -9.4 8 -13.5 72 72 Calm 30.85 1045 10 16 0.00 0.00
2:55 am 02:55 Partly Cloudy 15 -9.3 8 -13.4 72 72 Calm 30.86 1045 10 16 0.00 0.00
3:15 am 03:15 Clear 15 -9.4 8 -13.6 72 72 N 5 7 30.86 1045 10 16 0.00 0.00
3:35 am 03:35 Clear 15 -9.5 7 -13.9 71 71 NNW 6 9 30.88 1046 10 16 0.00 0.00
3:55 am 03:55 Clear 15 -9.7 7 -14 71 71 NNW 6 9 30.87 1046 10 16 0.00 0.00
4:15 am 04:15 Cloudy 15 -9.7 7 -13.8 72 72 N 6 9 30.88 1046 10 16 0.00 0.00
4:35 am 04:35 Partly Cloudy 14 -9.9 7 -13.8 73 73 N 8 13 30.88 1046 10 16 0.00 0.00
4:55 am 04:55 Clear 14 -10 7 -14 73 73 N 8 13 30.89 1046 10 16 0.00 0.00
5:15 am 05:15 Clear 14 -10.1 7 -14.1 73 73 N 3 6 30.90 1046 10 16 0.00 0.00
5:35 am 05:35 Mostly Cloudy 14 -10.2 7 -13.9 75 75 N 5 7 30.90 1046 10 16 0.00 0.00
5:55 am 05:55 Clear 13 -10.3 7 -13.9 75 75 Calm 30.90 1046 10 16 0.00 0.00
6:15 am 06:15 Clear 14 -10.2 7 -14 74 74 Calm 30.91 1047 10 16 0.00 0.00
6:35 am 06:35 Clear 13 -10.4 7 -13.7 77 77 Calm 30.91 1047 10 16 0.00 0.00
6:55 am 06:55 Clear 13 -10.4 7 -13.7 77 77 NNE 6 9 30.92 1047 10 16 0.00 0.00
7:15 am 07:15 Clear 13 -10.4 7 -14.1 75 75 N 5 7 30.92 1047 10 16 0.00 0.00
7:35 am 07:35 Clear 13 -10.4 6 -14.4 73 73 NNE 5 7 30.93 1047 10 16 0.00 0.00
7:55 am 07:55 Sunny 13 -10.4 6 -14.4 73 73 NNE 5 7 30.93 1047 10 16 0.00 0.00
8:15 am 08:15 Sunny 14 -10.1 6 -14.2 72 72 NNE 3 6 30.94 1048 10 16 0.00 0.00
8:35 am 08:35 Sunny 15 -9.6 7 -14.1 70 70 NNE 7 11 30.94 1048 10 16 0.00 0.00
8:55 am 08:55 Sunny 16 -9.1 8 -13.6 70 70 N 6 9 30.94 1048 10 16 0.00 0.00
9:15 am 09:15 Sunny 16 -8.8 7 -13.9 67 67 NE 8 13 30.95 1048 10 16 0.00 0.00
9:35 am 09:35 Sunny 17 -8.4 8 -13.6 66 66 NE 7 11 30.95 1048 10 16 0.00 0.00
9:55 am 09:55 Sunny 18 -7.9 8 -13.6 64 64 NNE 9 15 30.95 1048 10 16 0.00 0.00
10:15 am 10:15 Sunny 19 -7.4 8 -13.4 63 63 ENE 6 9 30.95 1048 10 16 0.00 0.00
10:35 am 10:35 Sunny 19 -7 8 -13.4 61 61 NE 9 15 30.95 1048 10 16 0.00 0.00
10:55 am 10:55 Sunny 20 -6.4 8 -13.5 58 58 E 6 9 30.94 1048 10 16 0.00 0.00
11:15 am 11:15 Sunny 21 -6 8 -13.6 55 55 ENE 8 13 30.94 1048 10 16 0.00 0.00
11:35 am 11:35 Sunny 21 -6 8 -13.6 55 55 Calm 30.95 1048 10 16 0.00 0.00
11:55 am 11:55 Sunny 23 -5.1 8 -13.5 52 52 NE 5 7 30.94 1048 10 16 0.00 0.00
12:15 pm 12:15 Sunny 22 -5.5 8 -13.5 54 54 Calm 30.93 1047 10 16 0.00 0.00
12:35 pm 12:35 Sunny 24 -4.6 9 -13 52 52 Calm 30.91 1047 10 16 0.00 0.00
12:55 pm 12:55 Sunny 24 -4.2 9 -12.8 52 52 ESE 5 7 30.90 1046 10 16 0.00 0.00
1:15 pm 13:15 Sunny 24 -4.2 9 -12.9 51 51 N 5 7 30.89 1046 10 16 0.00 0.00
1:35 pm 13:35 Sunny 25 -3.8 10 -12.3 52 52 N 3 6 30.87 1045 10 16 0.00 0.00
1:55 pm 13:55 Sunny 25 -3.8 10 -12.5 51 51 Calm 30.87 1045 10 16 0.00 0.00
2:15 pm 14:15 Sunny 26 -3.4 10 -12.1 51 51 Calm 30.85 1045 10 16 0.00 0.00
2:35 pm 14:35 Sunny 27 -2.6 11 -11.9 49 49 SSE 3 6 30.83 1044 10 16 0.00 0.00
2:55 pm 14:55 Sunny 28 -2.5 11 -11.6 50 50 ESE 3 6 30.82 1044 10 16 0.00 0.00
3:15 pm 15:15 Sunny 28 -2.2 12 -11.2 51 51 E 5 7 30.82 1044 10 16 0.00 0.00
3:35 pm 15:35 Sunny 29 -1.8 11 -11.5 48 48 ENE 7 11 30.80 1043 10 16 0.00 0.00
3:55 pm 15:55 Sunny 28 -2.2 11 -11.4 50 50 ENE 3 6 30.79 1043 10 16 0.00 0.00
4:15 pm 16:15 Sunny 28 -2.3 12 -11.3 50 50 E 3 6 30.79 1043 10 16 0.00 0.00
4:35 pm 16:35 Sunny 28 -2 12 -11.2 50 50 E 8 13 30.79 1043 10 16 0.00 0.00
4:55 pm 16:55 Sunny 28 -2.2 12 -11.1 51 51 E 5 7 30.79 1043 10 16 0.00 0.00
5:15 pm 17:15 Sunny 28 -2.4 12 -11.3 51 51 E 6 9 30.78 1042 10 16 0.00 0.00
5:35 pm 17:35 Sunny 27 -2.8 12 -10.9 54 54 E 5 7 30.78 1042 10 16 0.00 0.00
5:55 pm 17:55 Sunny 26 -3.5 13 -10.6 58 58 E 3 6 30.80 1043 10 16 0.00 0.00
6:15 pm 18:15 Clear 25 -4.1 14 -10 64 64 ENE 5 7 30.80 1043 10 16 0.00 0.00
6:35 pm 18:35 Clear 25 -4.1 14 -10 64 64 E 3 6 30.81 1043 10 16 0.00 0.00
7:15 pm 19:15 Clear 23 -4.8 14 -9.8 68 68 ENE 6 9 30.79 1043 10 16 0.00 0.00
7:35 pm 19:35 Clear 23 -4.8 15 -9.3 71 71 ENE 6 9 30.79 1043 10 16 0.00 0.00
7:55 pm 19:55 Clear 24 -4.6 15 -9.7 68 68 ENE 7 11 30.78 1042 10 16 0.00 0.00
8:15 pm 20:15 Clear 23 -4.9 15 -9.4 71 71 ENE 7 11 30.77 1042 10 16 0.00 0.00
8:35 pm 20:35 Clear 23 -4.9 15 -9.3 72 72 ENE 7 11 30.76 1042 10 16 0.00 0.00
8:55 pm 20:55 Clear 23 -5.1 15 -9.7 70 70 ENE 3 6 30.77 1042 10 16 0.00 0.00
9:15 pm 21:15 Clear 22 -5.5 15 -9.6 73 73 ENE 6 9 30.77 1042 10 16 0.00 0.00
9:35 pm 21:35 Clear 22 -5.6 15 -9.4 75 75 ENE 5 7 30.76 1042 10 16 0.00 0.00
9:55 pm 21:55 Clear 22 -5.5 16 -9 77 77 NE 6 9 30.75 1041 10 16 0.00 0.00
10:15 pm 22:15 Clear 22 -5.5 15 -9.3 75 75 NE 6 9 30.75 1041 10 16 0.00 0.00
10:35 pm 22:35 Clear 22 -5.5 15 -9.2 75 75 NNE 3 6 30.75 1041 10 16 0.00 0.00
10:55 pm 22:55 Clear 21 -5.9 15 -9.5 76 76 NE 3 6 30.75 1041 10 16 0.00 0.00
11:15 pm 23:15 Clear 20 -6.4 14 -9.8 77 77 E 3 6 30.74 1041 10 16 0.00 0.00
11:35 pm 23:35 Clear 21 -6.2 15 -9.7 77 77 ENE 3 6 30.73 1041 10 16 0.00 0.00
11:55 pm 23:55 Clear 21 -6.2 15 -9.6 77 77 ENE 3 6 30.72 1040 10 16 0.00 0.00

Powered by AerisWeather